Location: Go�ngahuizen
(53.0821°N, 5.8849°E)
Time: 02:52:22
(UTC+00:00)

BREEZE M DEB (TANK) - Pass Details

Date: 09 April 2020
Orbit: 304 x 11878 km, 49.5° (Epoch: 22 May)

Event Time Altitude Azimuth Distance (km) Brightness Sun altitude
Rises 19:19:22 0° 193° (SSW) 2,341 5.4 -8.3°
Reaches altitude 10° 19:21:12 10° 173° (S) 1,796 4.6 -8.5°
Maximum altitude 19:24:06 20° 122° (ESE) 1,804 4.3 -8.9°
Drops below altitude 10° 19:29:45 10° 79° (ENE) 3,804 6.1 -9.7°
Sets 19:36:20 0° 68° (ENE) 6,459 7.4 -10.5°
